Location: Newark
(48.2308°N, 120.8549°W)
Time: 03:19:08
(UTC+00:00)

A-11 Canister half - Visible Passes

Search period start: 06 June 2020 00:00
Search period end: 16 June 2020 00:00
Orbit: 1526 x 1683 km, 47.3° (Epoch: 05 June)

Date Brightness Start Highest point End Pass type
(mag) Time Alt. Az. Time Alt. Az. Time Alt. Az.
09 Jun 10.3 11:13:31 10° S 11:20:40 26° SE 11:27:48 10° E visible
10 Jun 10.3 10:52:10 10° S 10:59:08 24° SE 11:06:03 10° E visible
11 Jun 10.3 10:30:49 10° S 10:37:35 23° SE 10:44:19 10° E visible
12 Jun 10.3 10:09:29 10° S 10:16:02 22° SE 10:22:33 10° E visible
13 Jun 10.4 09:48:32 11° S 09:54:30 21° SE 10:00:47 10° E visible
14 Jun 10.4 09:27:53 12° SSE 09:32:58 19° SE 09:38:59 10° E visible
15 Jun 10.4 09:07:11 13° SSE 09:11:25 18° SE 09:17:10 10° E visible
15 Jun 9.4 11:05:47 10° SW 11:14:42 51° SSE 11:23:34 10° ENE visible
